When you browse on this site, cookies collect data to enhance your experience and personalize the content and advertising you see.
Visit our Privacy Policy to learn more. By continuing to use the site, you agree to this use of cookies and data.

Stündliche Wetter Vselyub

Heute, 13 Juli, Montag

Zeit Temperatur Niederschläge Wind Luftdruck Luftfeuchtigkeit
00:00 +9°C° 0 mm 3 m/S 749 mmHg 94%
01:00 +9°C° 0 mm 3 m/S 749 mmHg 94%
02:00 +8°C° 0 mm 2 m/S 749 mmHg 94%
03:00 +8°C° 0 mm 2 m/S 749 mmHg 94%
04:00 +8°C° 0 mm 3 m/S 749 mmHg 95%
05:00 +7°C° 0 mm 3 m/S 748 mmHg 95%
06:00 +9°C° 0 mm 3 m/S 748 mmHg 90%
07:00 +11°C° 0 mm 3 m/S 748 mmHg 85%
08:00 +13°C° 0 mm 3 m/S 748 mmHg 79%
09:00 +14°C° 0.1 mm 3 m/S 748 mmHg 74%
10:00 +15°C° 0.1 mm 4 m/S 748 mmHg 69%
11:00 +17°C° 0.1 mm 4 m/S 748 mmHg 65%
12:00 +18°C° 0.1 mm 4 m/S 747 mmHg 62%
13:00 +18°C° 0.1 mm 4 m/S 747 mmHg 60%
14:00 +19°C° 0.1 mm 4 m/S 747 mmHg 58%
15:00 +19°C° 0 mm 3 m/S 747 mmHg 60%
16:00 +19°C° 0 mm 3 m/S 746 mmHg 62%
17:00 +19°C° 0 mm 3 m/S 746 mmHg 63%
18:00 +17°C° 0 mm 3 m/S 746 mmHg 69%
19:00 +16°C° 0 mm 2 m/S 746 mmHg 74%
20:00 +15°C° 0 mm 2 m/S 746 mmHg 80%
21:00 +14°C° 0 mm 2 m/S 746 mmHg 84%
22:00 +13°C° 0 mm 2 m/S 746 mmHg 88%
23:00 +10°C° 0 mm 2 m/S 746 mmHg 91%

Morgen, 14 Juli, Dienstag

Zeit Temperatur Niederschläge Wind Luftdruck Luftfeuchtigkeit
00:00 +10°C° 0 mm 2 m/S 746 mmHg 93%
01:00 +10°C° 0 mm 2 m/S 746 mmHg 94%
02:00 +9°C° 0 mm 2 m/S 747 mmHg 96%
03:00 +9°C° 0 mm 2 m/S 746 mmHg 96%
04:00 +9°C° 0 mm 2 m/S 746 mmHg 97%
05:00 +9°C° 0 mm 2 m/S 746 mmHg 97%
06:00 +12°C° 0 mm 2 m/S 746 mmHg 92%
07:00 +13°C° 0 mm 2 m/S 746 mmHg 87%
08:00 +15°C° 0 mm 2 m/S 746 mmHg 82%
09:00 +16°C° 0 mm 3 m/S 746 mmHg 77%
10:00 +18°C° 0 mm 3 m/S 746 mmHg 72%
11:00 +19°C° 0 mm 3 m/S 746 mmHg 67%
12:00 +19°C° 0.2 mm 3 m/S 746 mmHg 65%
13:00 +20°C° 0.2 mm 3 m/S 746 mmHg 64%
14:00 +20°C° 0.2 mm 3 m/S 745 mmHg 62%
15:00 +21°C° 0.1 mm 3 m/S 745 mmHg 62%
16:00 +21°C° 0.1 mm 3 m/S 745 mmHg 62%
17:00 +21°C° 0.1 mm 3 m/S 745 mmHg 62%
18:00 +19°C° 0 mm 3 m/S 745 mmHg 68%
19:00 +18°C° 0 mm 2 m/S 744 mmHg 75%
20:00 +16°C° 0 mm 2 m/S 744 mmHg 81%
21:00 +15°C° 0 mm 2 m/S 744 mmHg 84%
22:00 +14°C° 0 mm 2 m/S 744 mmHg 87%
23:00 +13°C° 0 mm 2 m/S 744 mmHg 90%

übermorgen, 15 Juli, Mittwoch

Zeit Temperatur Niederschläge Wind Luftdruck Luftfeuchtigkeit
00:00 +13°C° 0 mm 2 m/S 744 mmHg 92%
01:00 +13°C° 0 mm 2 m/S 744 mmHg 93%
02:00 +12°C° 0 mm 2 m/S 744 mmHg 95%
03:00 +12°C° 0 mm 2 m/S 744 mmHg 95%
04:00 +12°C° 0 mm 2 m/S 744 mmHg 96%
05:00 +12°C° 0 mm 2 m/S 744 mmHg 97%
06:00 +14°C° 0 mm 2 m/S 744 mmHg 92%
07:00 +14°C° 0 mm 3 m/S 745 mmHg 88%
08:00 +17°C° 0 mm 3 m/S 745 mmHg 84%
09:00 +18°C° 0 mm 3 m/S 745 mmHg 78%
10:00 +19°C° 0 mm 3 m/S 745 mmHg 71%
11:00 +20°C° 0 mm 3 m/S 744 mmHg 65%
12:00 +21°C° 0.1 mm 3 m/S 744 mmHg 64%
13:00 +21°C° 0.1 mm 3 m/S 744 mmHg 63%
14:00 +23°C° 0.1 mm 2 m/S 744 mmHg 62%
15:00 +23°C° 0.1 mm 2 m/S 744 mmHg 63%
16:00 +23°C° 0.1 mm 2 m/S 744 mmHg 64%
17:00 +23°C° 0.1 mm 2 m/S 744 mmHg 65%
18:00 +21°C° 0.2 mm 1 m/S 744 mmHg 70%
19:00 +20°C° 0.2 mm 1 m/S 744 mmHg 76%
20:00 +17°C° 0.2 mm 0 m/S 744 mmHg 81%
21:00 +16°C° 0 mm 0 m/S 744 mmHg 83%
22:00 +15°C° 0 mm 0 m/S 744 mmHg 85%
23:00 +15°C° 0 mm 1 m/S 744 mmHg 87%

16 Juli, Donnerstag

Zeit Temperatur Niederschläge Wind Luftdruck Luftfeuchtigkeit
00:00 +14°C° 0 mm 1 m/S 744 mmHg 88%
01:00 +14°C° 0 mm 1 m/S 744 mmHg 89%
02:00 +14°C° 0 mm 1 m/S 744 mmHg 90%
03:00 +13°C° 0 mm 1 m/S 744 mmHg 90%
04:00 +13°C° 0 mm 1 m/S 744 mmHg 91%
05:00 +12°C° 0 mm 0 m/S 744 mmHg 91%
06:00 +14°C° 0 mm 0 m/S 744 mmHg 86%
07:00 +16°C° 0 mm 0 m/S 744 mmHg 81%
08:00 +18°C° 0 mm 0 m/S 744 mmHg 76%
09:00 +19°C° 0.1 mm 0 m/S 744 mmHg 71%
10:00 +21°C° 0.1 mm 0 m/S 744 mmHg 66%
11:00 +24°C° 0.1 mm 1 m/S 744 mmHg 60%
12:00 +24°C° 0.5 mm 1 m/S 743 mmHg 60%
13:00 +25°C° 0.5 mm 1 m/S 743 mmHg 59%
14:00 +25°C° 0.5 mm 1 m/S 743 mmHg 59%
15:00 +24°C° 0.4 mm 1 m/S 743 mmHg 63%
16:00 +24°C° 0.4 mm 1 m/S 743 mmHg 67%
17:00 +24°C° 0.4 mm 1 m/S 742 mmHg 70%
18:00 +22°C° 0.5 mm 1 m/S 742 mmHg 74%
19:00 +21°C° 0.5 mm 1 m/S 743 mmHg 78%
20:00 +18°C° 0.5 mm 0 m/S 743 mmHg 81%
21:00 +19°C° 0.1 mm 1 m/S 743 mmHg 83%
22:00 +18°C° 0.1 mm 1 m/S 743 mmHg 85%
23:00 +16°C° 0.1 mm 1 m/S 743 mmHg 87%

17 Juli, Freitag

Zeit Temperatur Niederschläge Wind Luftdruck Luftfeuchtigkeit
00:00 +16°C° 0 mm 1 m/S 743 mmHg 88%
01:00 +15°C° 0 mm 1 m/S 743 mmHg 90%
02:00 +15°C° 0 mm 1 m/S 743 mmHg 91%
03:00 +15°C° 0 mm 1 m/S 743 mmHg 91%
04:00 +15°C° 0 mm 2 m/S 743 mmHg 92%
05:00 +15°C° 0 mm 2 m/S 743 mmHg 92%
06:00 +16°C° 0 mm 2 m/S 743 mmHg 89%
07:00 +18°C° 0 mm 2 m/S 743 mmHg 86%
08:00 +19°C° 0 mm 2 m/S 744 mmHg 82%
09:00 +20°C° 0.6 mm 2 m/S 744 mmHg 78%
10:00 +23°C° 0.6 mm 2 m/S 744 mmHg 73%
11:00 +24°C° 0.6 mm 2 m/S 744 mmHg 69%
12:00 +24°C° 0.9 mm 2 m/S 744 mmHg 71%
13:00 +24°C° 0.9 mm 2 m/S 744 mmHg 72%
14:00 +24°C° 0.9 mm 2 m/S 744 mmHg 74%
15:00 +23°C° 0.6 mm 2 m/S 744 mmHg 77%
16:00 +23°C° 0.6 mm 2 m/S 744 mmHg 79%
17:00 +23°C° 0.6 mm 2 m/S 744 mmHg 81%
18:00 +21°C° 0.2 mm 2 m/S 744 mmHg 83%
19:00 +20°C° 0.2 mm 2 m/S 744 mmHg 85%
20:00 +19°C° 0.2 mm 2 m/S 744 mmHg 88%
21:00 +18°C° 0 mm 2 m/S 744 mmHg 89%
22:00 +17°C° 0 mm 2 m/S 744 mmHg 90%
23:00 +16°C° 0 mm 3 m/S 744 mmHg 92%

18 Juli, Samstag

Zeit Temperatur Niederschläge Wind Luftdruck Luftfeuchtigkeit
00:00 +16°C° 0 mm 3 m/S 744 mmHg 91%
01:00 +16°C° 0 mm 3 m/S 745 mmHg 91%
02:00 +14°C° 0 mm 3 m/S 745 mmHg 90%
03:00 +14°C° 0.1 mm 3 m/S 745 mmHg 92%
04:00 +14°C° 0.1 mm 3 m/S 745 mmHg 93%
05:00 +14°C° 0.1 mm 3 m/S 745 mmHg 95%
06:00 +16°C° 0.1 mm 3 m/S 745 mmHg 92%
07:00 +18°C° 0.1 mm 3 m/S 745 mmHg 90%
08:00 +19°C° 0.1 mm 3 m/S 745 mmHg 87%
09:00 +20°C° 0.4 mm 3 m/S 746 mmHg 83%
10:00 +21°C° 0.4 mm 4 m/S 746 mmHg 79%
11:00 +23°C° 0.4 mm 4 m/S 746 mmHg 75%
12:00 +23°C° 0.7 mm 4 m/S 746 mmHg 74%
13:00 +23°C° 0.7 mm 4 m/S 746 mmHg 73%
14:00 +25°C° 0.7 mm 4 m/S 746 mmHg 73%
15:00 +23°C° 0.5 mm 4 m/S 746 mmHg 75%
16:00 +24°C° 0.5 mm 3 m/S 746 mmHg 77%
17:00 +24°C° 0.5 mm 3 m/S 746 mmHg 79%
18:00 +22°C° 0.1 mm 3 m/S 746 mmHg 81%
19:00 +21°C° 0.1 mm 3 m/S 746 mmHg 84%
20:00 +20°C° 0.1 mm 3 m/S 746 mmHg 86%
21:00 +19°C° 0.1 mm 3 m/S 746 mmHg 86%
22:00 +19°C° 0.1 mm 3 m/S 747 mmHg 86%
23:00 +18°C° 0.1 mm 4 m/S 747 mmHg 86%
Mehr zeigen